9M4GHZ-13 Weather Reports


Display with metric or nautical units.
time (UTC)temp
F
wind
direction
speed
MPH
gust
MPH
rain 1hr
in
rain 24hr
in
rain mn
in
humidity
%
barometer
mb
20260506205005 76 135 0.0 0.0 0.00 0.00 0.00 97 1007.6
20260506204004 76 135 1.0 1.0 0.00 0.00 0.00 97 1007.8
20260506203006 75 135 0.0 1.0 0.00 0.00 0.00 97 1007.8
20260506202005 75 135 0.0 1.0 0.00 0.00 0.00 97 1007.8
20260506201004 75 135 0.0 1.0 0.00 0.00 0.00 97 1008.2
20260506195005 76 157 0.0 1.0 0.00 0.00 0.00 96 1008.1
20260506194005 76 202 1.0 2.0 0.00 0.00 0.00 96 1007.9
20260506193005 76 247 1.0 2.0 0.00 0.00 0.00 96 1008.1
20260506192005 76 270 0.0 1.0 0.00 0.00 0.00 96 1007.9
20260506191004 76 180 0.0 1.0 0.00 0.00 0.00 97 1008.2
20260506190005 76 247 3.0 4.0 0.00 0.00 0.00 97 1008.1
20260506185005 76 225 2.0 2.0 0.00 0.00 0.00 97 1008.1
20260506184005 76 180 1.0 2.0 0.00 0.00 0.00 97 1008.4
20260506183005 77 135 1.0 2.0 0.00 0.00 0.00 97 1008.2
20260506182004 77 157 0.0 1.0 0.00 0.00 0.00 97 1008.2
20260506181004 77 157 0.0 1.0 0.00 0.00 0.00 97 1008.3
20260506180006 77 135 1.0 2.0 0.00 0.00 0.00 96 1008.5
20260506175005 77 202 0.0 2.0 0.00 0.00 0.00 96 1008.4
20260506174005 77 202 1.0 3.0 0.00 0.00 0.00 96 1008.4
20260506173004 77 180 4.0 6.0 0.00 0.00 0.00 97 1008.8
20260506172005 77 247 4.0 8.0 0.00 0.00 0.00 97 1009.1
20260506171006 77 247 2.0 3.0 0.00 0.00 0.00 96 1009.1
20260506170004 77 247 2.0 3.0 0.00 0.00 0.00 96 1009.5
20260506165005 76 247 3.0 3.0 0.00 0.00 0.00 96 1009.5
20260506164004 76 247 3.0 4.0 0.00 0.00 0.00 96 1009.2
20260506163003 76 247 3.0 3.0 0.00 0.00 0.00 97 1009.1
20260506162004 76 270 0.0 1.0 0.00 0.00 0.00 97 1009.2
20260506161006 75 315 1.0 2.0 0.00 0.00 0.00 97 1009.3
20260506160004 75 315 3.0 6.0 0.00 0.00 0.00 97 1009.3
20260506155005 76 337 0.0 1.0 0.00 0.00 0.00 97 1009.5
20260506154005 76 337 1.0 2.0 0.00 0.00 0.00 97 1009.7
20260506153004 76 337 1.0 3.0 0.00 0.00 0.00 97 1009.9
20260506152005 77 337 4.0 6.0 0.00 0.00 0.00 96 1010.0
20260506151005 78 337 1.0 2.0 0.00 0.00 0.00 96 1009.9
20260506150004 78 67 1.0 2.0 0.00 0.00 0.00 96 1009.7
20260506145005 79 90 1.0 3.0 0.00 0.00 0.00 96 1009.5
20260506144006 79 90 5.0 8.0 0.00 0.00 0.00 95 1008.9
20260506143005 80 135 6.0 9.0 0.00 0.00 0.00 93 1009.0
20260506142005 80 135 3.0 6.0 0.00 0.00 0.00 94 1008.9
20260506141005 80 90 5.0 8.0 0.00 0.00 0.00 94 1008.9
20260506140004 80 247 2.0 2.0 0.00 0.00 0.00 93 1008.3
20260506135005 80 247 1.0 2.0 0.00 0.00 0.00 93 1008.5
20260506134005 80 247 2.0 3.0 0.00 0.00 0.00 93 1008.6
20260506133004 81 202 5.0 6.0 0.00 0.00 0.00 92 1008.5
20260506132005 81 247 4.0 6.0 0.00 0.00 0.00 91 1008.3
20260506131005 82 247 1.0 2.0 0.00 0.00 0.00 90 1008.4
20260506130005 82 315 0.0 0.0 0.00 0.00 0.00 89 1008.4
20260506125004 82 315 0.0 0.0 0.00 0.00 0.00 89 1008.2
20260506124005 82 315 0.0 0.0 0.00 0.00 0.00 88 1008.1
20260506123004 82 315 0.0 1.0 0.00 0.00 0.00 88 1008.1
20260506122005 83 315 0.0 0.0 0.00 0.00 0.00 85 1007.7
20260506121004 83 315 0.0 0.0 0.00 0.00 0.00 84 1007.5
20260506120005 83 315 0.0 1.0 0.00 0.00 0.00 83 1007.4
20260506115004 83 315 0.0 1.0 0.00 0.00 0.00 83 1007.2
20260506114005 83 315 0.0 2.0 0.00 0.00 0.00 82 1007.0
20260506113006 83 337 0.0 1.0 0.00 0.00 0.00 83 1007.0
20260506112005 83 0 0.0 2.0 0.00 0.00 0.00 83 1006.7
20260506111005 83 337 0.0 0.0 0.00 0.00 0.00 84 1006.3
20260506110004 84 0 1.0 2.0 0.00 0.00 0.00 82 1005.8
20260506105006 84 22 0.0 1.0 0.00 0.00 0.00 82 1006.2
20260506104004 84 22 0.0 1.0 0.00 0.00 0.00 81 1006.2
20260506103006 85 22 0.0 1.0 0.00 0.00 0.00 81 1006.0
20260506102004 85 337 2.0 3.0 0.00 0.00 0.00 80 1005.6
20260506101005 86 292 2.0 3.0 0.00 0.00 0.00 77 1005.9
20260506100007 86 337 1.0 3.0 0.00 0.00 0.00 76 1005.5
20260506095005 87 292 3.0 6.0 0.00 0.00 0.00 74 1005.5
20260506094004 87 315 5.0 6.0 0.00 0.00 0.00 72 1005.3
20260506093005 88 292 6.0 6.0 0.00 0.00 0.00 70 1005.1
20260506092005 88 337 5.0 6.0 0.00 0.00 0.00 70 1004.9
20260506091005 88 292 5.0 6.0 0.00 0.00 0.00 69 1004.7
20260506090005 88 45 3.0 6.0 0.00 0.00 0.00 70 1004.7
20260506085004 88 0 4.0 6.0 0.00 0.00 0.00 71 1004.8
20260506084005 88 315 7.0 10.0 0.00 0.00 0.00 71 1005.2
20260506083006 88 315 5.0 6.0 0.00 0.00 0.00 70 1005.2
20260506082005 87 292 3.0 6.0 0.00 0.00 0.00 71 1005.1
20260506081005 87 0 2.0 3.0 0.00 0.00 0.00 76 1005.3
20260506073005 84 337 2.0 3.0 0.00 0.00 0.00 81 1005.6
20260506072004 84 315 2.0 3.0 0.00 0.00 0.00 82 1005.4
20260506071005 84 315 3.0 6.0 0.00 0.00 0.00 82 1005.4
20260506062005 80 22 1.0 2.0 0.00 0.00 0.00 94 1006.0
20260506061004 79 315 2.0 3.0 0.00 0.00 0.00 95 1006.3
20260506051004 86 292 5.0 6.0 0.00 0.00 0.00 72 1007.5
20260506045005 89 292 5.0 9.0 0.00 0.00 0.00 70 1007.4
20260506044005 90 22 3.0 4.0 0.00 0.00 0.00 66 1007.5
20260506043005 89 45 1.0 2.0 0.00 0.00 0.00 70 1007.5
20260506042004 89 67 3.0 4.0 0.00 0.00 0.00 68 1007.9
20260506041005 88 45 4.0 6.0 0.00 0.00 0.00 72 1007.9
20260506040005 88 135 0.0 1.0 0.00 0.00 0.00 73 1007.9
20260506035005 88 337 1.0 3.0 0.00 0.00 0.00 72 1008.2
20260506034005 87 0 2.0 2.0 0.00 0.00 0.00 73 1008.3
20260506033005 88 45 0.0 2.0 0.00 0.00 0.00 70 1008.4
20260506032005 89 90 0.0 2.0 0.00 0.00 0.00 67 1008.4
20260506031005 88 90 3.0 4.0 0.00 0.00 0.00 68 1008.5
20260506030005 88 90 3.0 4.0 0.00 0.00 0.00 69 1008.6
20260506025005 88 135 1.0 2.0 0.00 0.00 0.00 69 1008.8
20260506024005 89 202 2.0 3.0 0.00 0.00 0.00 67 1009.0
20260506023004 87 90 0.0 1.0 0.00 0.00 0.00 68 1009.0
20260506022005 89 202 1.0 2.0 0.00 0.00 0.00 68 1009.0
20260506021005 88 225 2.0 3.0 0.00 0.00 0.00 69 1009.1
20260506020005 87 202 1.0 2.0 0.00 0.00 0.00 69 1009.3
20260506015005 88 135 2.0 4.0 0.00 0.00 0.00 68 1009.1
20260506014005 86 202 3.0 4.0 0.00 0.00 0.00 73 1009.3
20260506013005 85 247 2.0 3.0 0.00 0.00 0.00 74 1009.2
20260506012005 85 157 3.0 6.0 0.00 0.00 0.00 73 1009.4
20260506011004 85 225 2.0 3.0 0.00 0.00 0.00 75 1009.1
20260506010005 84 247 2.0 2.0 0.00 0.00 0.00 76 1009.2
20260506005004 83 180 3.0 4.0 0.00 0.00 0.00 79 1009.1
20260506004005 83 202 3.0 4.0 0.00 0.00 0.00 79 1009.2
20260506003005 83 202 3.0 4.0 0.00 0.00 0.00 80 1009.0
20260506002004 82 135 4.0 6.0 0.00 0.00 0.00 82 1008.6
20260506001004 82 157 0.0 2.0 0.00 0.00 0.00 83 1008.6
20260506000005 81 157 1.0 3.0 0.00 0.00 0.00 85 1008.5
20260505235005 80 157 2.0 3.0 0.00 0.00 0.00 86 1008.5
20260505234005 80 135 0.0 1.0 0.00 0.00 0.00 88 1008.5
20260505233004 80 157 2.0 3.0 0.00 0.00 0.00 89 1008.2
20260505232005 79 157 0.0 1.0 0.00 0.00 0.00 90 1008.2
20260505231005 79 202 0.0 0.0 0.00 0.00 0.00 93 1008.2
20260505230005 78 202 0.0 0.0 0.00 0.00 0.00 94 1008.0
20260505225005 78 202 0.0 1.0 0.00 0.00 0.00 94 1007.8
20260505224004 0 0 0.0 0.0 0.00 0.00 0.00 100
20260505223006 77 247 0.0 1.0 0.00 0.00 0.00 94 1007.6
20260505222004 77 157 0.0 1.0 0.00 0.00 0.00 94 1007.6
20260505221004 77 157 0.0 1.0 0.00 0.00 0.00 94 1007.7
20260505220004 77 157 0.0 1.0 0.00 0.00 0.00 94 1007.5
20260505215005 77 157 0.0 0.0 0.00 0.00 0.00 94 1007.2
20260505214005 77 180 0.0 1.0 0.00 0.00 0.00 94 1007.5
20260505213005 77 247 1.0 2.0 0.00 0.00 0.00 93 1007.3
20260505212005 77 270 0.0 1.0 0.00 0.00 0.00 93 1007.2
20260505211004 77 225 2.0 3.0 0.00 0.00 0.00 93 1007.3
20260505210005 77 225 1.0 2.0 0.00 0.00 0.00 93 1007.1